Location: Theydon Bois
(51.6750°N, 0.1050°E)
Time: 06:16:34
(UTC+00:00)

Envisat - Pass Details

Date: 11 December 2019
Orbit: 764 x 766 km, 98.1° (Epoch: 20 January)

Event Time Altitude Azimuth Distance (km) Brightness Sun altitude
Rises 05:40:50 0° 25° (NNE) 3,246 6.4 -19.6°
Reaches altitude 10° 05:43:45 10° 42° (NE) 2,314 5.8 -19.2°
Maximum altitude 05:47:30 20° 89° (E) 1,706 5.7 -18.6°
Drops below altitude 10° 05:51:13 10° 137° (SE) 2,300 6.3 -18.0°
Sets 05:54:05 0° 153° (SSE) 3,221 6.9 -17.6°
